Location: Washington
(38.8950°N, 77.0367°W)
Time: 00:18:13
(UTC-04:00)

N. Korean satellite - Visible Passes

Search period start: 02 August 2015 00:00
Search period end: 12 August 2015 00:00
Orbit: 471 x 537 km, 97.3° (Epoch: 01 August)

Date Brightness Start Highest point End Pass type
(mag) Time Alt. Az. Time Alt. Az. Time Alt. Az.
04 Aug 9.6 21:19:00 10° WSW 21:20:50 13° W 21:22:30 10° WNW visible
05 Aug 9.1 20:59:21 10° SSW 21:02:12 22° W 21:05:01 10° NW visible
06 Aug 8.0 20:40:18 10° S 20:43:39 39° W 20:46:58 10° NNW visible
09 Aug 9.6 21:20:37 10° WSW 21:22:14 12° W 21:23:42 10° WNW visible
10 Aug 9.2 21:00:46 10° SSW 21:03:33 21° W 21:06:15 10° NW visible
11 Aug 8.1 20:41:38 10° SSW 20:44:55 37° W 20:48:12 10° NNW visible
